Weather History for KMPV - October, 2013

Change the Weather History Date:

Saturday, October 5, 2013

  Actual Average Record
Temperature  
Mean Temperature 54 °F 50 °F  
Max Temperature 60 °F 60 °F 82 °F (1951)
Min Temperature 48 °F 39 °F 23 °F (1996)
Degree Days  
Heating Degree Days 11 16  
Month to date heating degree days 49 74  
Since 1 July heating degree days 429 429  
Cooling Degree Days 0 0  
Month to date cooling degree days 0 0  
Year to date cooling degree days 323 263  
Growing Degree Days 5 (Base 50)    
Moisture  
Dew Point 47 °F    
Average Humidity 71    
Maximum Humidity 89    
Minimum Humidity 53    
Precipitation  
Precipitation 0.02 in 0.11 in 1.01 in (1962)
Month to date precipitation 0.04 0.58  
Year to date precipitation 29.65 28.50  
Sea Level Pressure  
Sea Level Pressure 30.17 in    
Wind  
Wind Speed 1 mph (NNW)    
Max Wind Speed 6 mph    
Max Gust Speed 8 mph    
Visibility 10 miles    
Events      
T = Trace of Precipitation, MM = Missing Value Source: NWS Daily Summary

Daily Weather History Graph

Daily Weather History Graph

Search for Another Location

Airport or City:

Trip Planner

Search our weather history database for the weather conditions in past years. The results will help you decide how hot, cold, wet, or windy it might be!

Date:

Astronomy

Oct. 05, 2013 Rise Set
Actual Time 6:53 AM EDT 6:23 PM EDT
Civil Twilight 6:24 AM EDT 6:52 PM EDT
Nautical Twilight 5:50 AM EDT 7:25 PM EDT
Astronomical Twilight 5:16 AM EDT 7:59 PM EDT
Moon 7:31 AM EDT (10/5) 6:37 PM EDT (10/5)
Length of Visible Light 12h 28m
Length of Day
11h 30m
New Moon, 0% of the Moon is Illuminated
Oct 5
New Moon
Oct 11
First Quarter
Oct 18
Full
Oct 26
Last Quarter
Nov 3
New

Hourly Weather History & Observations

Time (EDT) Temp. Dew Point Humidity Pressure Visibility Wind Dir Wind Speed Gust Speed Precip Events Conditions
12:51 AM 54.0 °F 48.0 °F 80% 30.14 in 10.0 mi Calm Calm - N/A   Overcast
1:51 AM 54.0 °F 46.0 °F 75% 30.14 in 10.0 mi Calm Calm - N/A   Overcast
2:51 AM 54.0 °F 48.0 °F 80% 30.13 in 10.0 mi Calm Calm - N/A   Overcast
3:51 AM 53.1 °F 46.9 °F 80% 30.15 in 10.0 mi Calm Calm - N/A   Overcast
4:51 AM 53.1 °F 46.0 °F 77% 30.14 in 10.0 mi Calm Calm - N/A   Overcast
5:51 AM 52.0 °F 44.1 °F 74% 30.17 in 10.0 mi North 3.5 mph - N/A   Overcast
6:51 AM 50.0 °F 46.0 °F 86% 30.18 in 10.0 mi Calm Calm - 0.02 in   Overcast
7:51 AM 50.0 °F 46.0 °F 86% 30.18 in 10.0 mi Calm Calm - N/A   Overcast
8:51 AM 51.1 °F 48.0 °F 89% 30.18 in 10.0 mi Calm Calm - N/A   Overcast
9:51 AM 53.1 °F 48.9 °F 86% 30.18 in 10.0 mi Calm Calm - N/A   Overcast
10:51 AM 54.0 °F 48.0 °F 80% 30.18 in 10.0 mi Calm Calm - N/A   Overcast
11:51 AM 55.0 °F 46.9 °F 74% 30.18 in 10.0 mi NE 3.5 mph - N/A   Overcast
12:51 PM 57.0 °F 45.0 °F 64% 30.17 in 10.0 mi NNE 3.5 mph - N/A   Overcast
1:51 PM 59.0 °F 43.0 °F 55% 30.14 in 10.0 mi Calm Calm - N/A   Overcast
2:51 PM 59.0 °F 44.1 °F 58% 30.14 in 10.0 mi Calm Calm - N/A   Overcast
3:51 PM 59.0 °F 45.0 °F 60% 30.14 in 10.0 mi Calm Calm - N/A   Overcast
4:51 PM 60.1 °F 46.9 °F 62% 30.15 in 10.0 mi Calm Calm - N/A   Overcast
5:51 PM 57.9 °F 50.0 °F 75% 30.16 in 10.0 mi WNW 3.5 mph - N/A   Overcast
6:51 PM 55.9 °F 51.1 °F 84% 30.17 in 10.0 mi Calm Calm - N/A   Overcast
7:51 PM 55.0 °F 50.0 °F 83% 30.17 in 10.0 mi Calm Calm - N/A   Overcast
8:51 PM 55.0 °F 50.0 °F 83% 30.17 in 10.0 mi Calm Calm - N/A   Overcast
9:51 PM 52.0 °F 46.9 °F 83% 30.19 in 10.0 mi Calm Calm - N/A   Partly Cloudy
10:51 PM 51.1 °F 42.1 °F 71% 30.21 in 10.0 mi NW 3.5 mph - N/A   Scattered Clouds
11:51 PM 48.9 °F 43.0 °F 80% 30.22 in 10.0 mi Calm Calm - N/A   Mostly Cloudy